Weather History for Westerly, RI

Change the Weather History Date:

Sunday, August 4, 2013

  Actual Average (KGON) Record (KGON)
Temperature  
Mean Temperature 70 °F -  
Max Temperature 81 °F 81 °F 90 °F (1980)
Min Temperature 60 °F 65 °F 50 °F (1964)
Cooling Degree Days 6    
Growing Degree Days 20 (Base 50)    
Moisture  
Dew Point 57 °F    
Average Humidity 67    
Maximum Humidity 97    
Minimum Humidity 41    
Precipitation  
Precipitation 0.01 in - - ()
Sea Level Pressure  
Sea Level Pressure 29.85 in    
Wind  
Wind Speed 4 mph (NW)    
Max Wind Speed 15 mph    
Max Gust Speed 21 mph    
Visibility 10 miles    
Events      
Averages and records for this station are not official NWS values.
T = Trace of Precipitation, MM = Missing Value Source: NWS Daily Summary

Daily Weather History Graph

Daily Weather History Graph

Search for Another Location

Airport:

Trip Planner

Search our weather history database for the weather conditions in past years. The results will help you decide how hot, cold, wet, or windy it might be!

Date:

Astronomy

Aug. 04, 2013 Rise Set
Actual Time 5:45 AM EDT 8:00 PM EDT
Civil Twilight 5:14 AM EDT 8:31 PM EDT
Nautical Twilight 4:36 AM EDT 9:08 PM EDT
Astronomical Twilight 3:54 AM EDT 9:50 PM EDT
Moon 3:43 AM EDT (8/4) 6:21 PM EDT (8/4)
Length of Visible Light 15h 16m
Length of Day
14h 14m
Waning Crescent, 5% of the Moon is Illuminated
Aug 4
Waning Crescent
Aug 6
New
Aug 14
First Quarter
Aug 20
Full
Aug 28
Last Quarter

Hourly Weather History & Observations

Time (EDT) Temp. Heat Index Dew Point Humidity Pressure Visibility Wind Dir Wind Speed Gust Speed Precip Events Conditions
12:53 AM 63.0 °F - 62.1 °F 97% 29.86 in 7.0 mi Calm Calm - N/A   Clear
1:53 AM 61.0 °F - 60.1 °F 97% 29.85 in 8.0 mi Calm Calm - N/A   Clear
2:53 AM 63.0 °F - 60.1 °F 90% 29.84 in 10.0 mi NNW 6.9 mph - N/A   Clear
3:53 AM 61.0 °F - 59.0 °F 93% 29.85 in 10.0 mi Calm Calm - N/A   Clear
4:53 AM 60.1 °F - 55.9 °F 86% 29.84 in 9.0 mi Calm Calm - N/A   Clear
5:53 AM 61.0 °F - 55.9 °F 83% 29.85 in 10.0 mi Calm Calm - N/A   Clear
6:53 AM 63.0 °F - 55.9 °F 78% 29.86 in 10.0 mi Variable 3.5 mph - N/A   Clear
7:53 AM 66.9 °F - 57.0 °F 70% 29.86 in 10.0 mi NW 8.1 mph - N/A   Clear
8:53 AM 70.0 °F - 55.9 °F 61% 29.85 in 10.0 mi NW 5.8 mph - N/A   Clear
9:53 AM 73.9 °F - 57.0 °F 55% 29.85 in 10.0 mi NW 8.1 mph - N/A   Clear
10:53 AM 77.0 °F - 55.0 °F 47% 29.85 in 10.0 mi NW 5.8 mph - N/A   Clear
11:53 AM 79.0 °F - 54.0 °F 42% 29.85 in 10.0 mi NNW 10.4 mph 19.6 mph N/A   Clear
12:53 PM 78.1 °F - 55.0 °F 45% 29.84 in 10.0 mi Variable 6.9 mph - N/A   Clear
1:53 PM 81.0 °F 80.7 °F 55.0 °F 41% 29.82 in 10.0 mi NNW 15.0 mph 20.7 mph N/A   Partly Cloudy
2:53 PM 80.1 °F 80.1 °F 55.0 °F 42% 29.81 in 10.0 mi NW 5.8 mph 16.1 mph N/A   Clear
3:53 PM 78.1 °F - 57.0 °F 48% 29.82 in 10.0 mi WSW 6.9 mph - N/A   Partly Cloudy
4:53 PM 75.9 °F - 61.0 °F 60% 29.82 in 10.0 mi WSW 6.9 mph - N/A   Scattered Clouds
5:53 PM 75.0 °F - 55.9 °F 51% 29.83 in 10.0 mi Variable 5.8 mph - N/A   Clear
6:53 PM 71.1 °F - 63.0 °F 75% 29.84 in 10.0 mi WSW 4.6 mph - 0.01 in   Clear
7:53 PM 68.0 °F - 61.0 °F 78% 29.86 in 10.0 mi Variable 3.5 mph - N/A   Clear
8:53 PM 66.9 °F - 57.9 °F 73% 29.88 in 10.0 mi WNW 3.5 mph - N/A   Clear
9:53 PM 66.9 °F - 54.0 °F 63% 29.90 in 10.0 mi NW 5.8 mph - N/A   Clear
10:53 PM 64.0 °F - 54.0 °F 70% 29.91 in 10.0 mi WNW 3.5 mph - N/A   Clear
11:53 PM 64.0 °F - 54.0 °F 70% 29.91 in 10.0 mi NW 6.9 mph - N/A   Clear